Miscellaneous Local Product
Issued by NWS Hastings, NE

Home | Current Version | Previous Version | Graphics & Text | Print | Product List | Glossary On
Versions: 1 2 3 4 5 6 7 8 9 10 11 12 13 14 15 16 17 18 19 20 21 22 23 24 25 26 27 28 29 30 31 32 33 34 35 36 37 38 39 40 41 42 43 44 45 46 47 48 49 50
000
AXUS43 KGID 270402
MISGRI

GID CWA HOURLY WEATHER ROUNDUP
NATIONAL WEATHER SERVICE HASTINGS NE
1100 PM CDT TUE MAY 26 2015

NOTE: "FAIR" INDICATES FEW OR NO CLOUDS BELOW 12,000 FEET WITH NO
SIGNIFICANT WEATHER AND/OR OBSTRUCTIONS TO VISIBILITY.

...SOUTH CENTRAL NEBRASKA...

CITY           SKY/WX    TMP DP  RH WIND       PRES   REMARKS
GRAND ISLAND   CLEAR     56  48  74 W7        29.99R
HASTINGS       CLEAR     58  50  75 W3        30.00R
KEARNEY        CLEAR     63  46  55 W3        30.01R
ORD            CLEAR     54  48  80 CALM      29.97R
YORK           CLEAR     57  52  82 W7        29.97R
AURORA         CLEAR     55  50  83 W8        29.98R
LEXINGTON      CLEAR     56  49  79 CALM      30.02R
HOLDREGE       CLEAR     58  48  69 CALM      30.02R
HEBRON         CLEAR     58  51  76 W3        29.99R

...NEBRASKA PANHANDLE...

CITY           SKY/WX    TMP DP  RH WIND       PRES   REMARKS
CHADRON        CLOUDY    58  50  75 SE7       30.01R
ALLIANCE       MOCLDY    52  49  89 SE7       30.03R
SCOTTSBLUFF    PTCLDY    59  52  77 E7        30.03R
SIDNEY         PTCLDY    53  50  89 SE6       30.06R

...WESTERN AND NORTH CENTRAL NEBRASKA...

CITY           SKY/WX    TMP DP  RH WIND       PRES   REMARKS
VALENTINE      CLEAR     56  50  80 W3        30.00R
AINSWORTH      PTCLDY    60  52  77 SW3       29.99R
ONEILL         CLEAR     58  53  81 W5        29.97R
BROKEN BOW     CLEAR     56  50  80 CALM      30.01R
IMPERIAL       PTCLDY    54  49  83 SE7       30.04R
NORTH PLATTE   CLEAR     54  50  86 E5        30.04R
MCCOOK         CLEAR     56  48  74 NE5       30.03R

...EASTERN NEBRASKA...

CITY           SKY/WX    TMP DP  RH WIND       PRES   REMARKS
NORFOLK        CLEAR     57  52  83 W7        29.94R
SO SIOUX CITY  PTCLDY    58  55  90 CALM      29.91R
TEKAMAH        PTCLDY    58  55  90 NW3       29.91R
COLUMBUS         N/A    N/A N/A N/A MISG        N/A
ALBION         CLEAR     58  50  76 NW5       29.96R
OMAHA EPPLEY   PTCLDY    58  56  93 N5        29.92R
OFFUTT AFB     CLEAR     62  56  81 W5        29.91R
MILLARD        CLEAR     63  56  78 W6        29.91R
LINCOLN        CLEAR     63  54  72 SW6       29.95R
NEBRASKA CITY  CLEAR     61  54  78 W7        29.93R
BEATRICE       PTCLDY    59  55  84 SW5       29.96R
FALLS CITY     CLEAR     62  57  83 SW7       29.93R

...NORTHERN KANSAS...

CITY           SKY/WX    TMP DP  RH WIND       PRES   REMARKS
GOODLAND       PTCLDY    55  52  89 SE6       30.04R
HILL CITY      CLEAR     55  50  83 SE3       30.02R
NORTON         CLEAR     55  45  67 CALM      30.02R
PHILLIPSBURG   CLEAR     61  54  77 CALM      30.01S
SMITH CENTER   CLEAR     57  52  82 CALM      30.01S
HAYS           CLEAR     59  48  67 NE6       30.02R
RUSSELL        CLEAR     59  53  80 E8        30.01R
CONCORDIA      MOCLDY    61  53  75 W6        30.00R
SALINA         CLEAR     63  56  78 CALM      30.00R
TOPEKA         PTCLDY    66  59  78 W6        29.96R



USA.gov is the U.S. government's official web portal to all federal, state and local government web resources and services.